This is the latest recevied weather packets stored in our database for station/object 4S6DRJ-13. If no packets are shown the sender has not sent any weather packets the latest 10 day(s).
| Time | Temp. | Humidity | Pressure | Rain* | Wind** | Luminosity | Snow |
|---|---|---|---|---|---|---|---|
| 1787926304 | 28.33° C | 84% | 1009.5 hPa | 0 mm | 0.89 m/s, 279° | 0 W/m² | - |
| 1787926243 | 28.33° C | 84% | 1009.4 hPa | 0 mm | 2.24 m/s, 251° | 0 W/m² | - |
| 1787926182 | 28.33° C | 84% | 1009.5 hPa | 0 mm | 1.79 m/s, 216° | 0 W/m² | - |
| 1787926121 | 28.33° C | 84% | 1009.4 hPa | 0 mm | 2.68 m/s, 234° | 0 W/m² | - |
| 1787926060 | 28.33° C | 84% | 1009.4 hPa | 0 mm | 1.34 m/s, 271° | 0 W/m² | - |
| 1787925999 | 28.33° C | 84% | 1009.3 hPa | 0 mm | 2.24 m/s, 184° | 0 W/m² | - |
| 1787925938 | 28.33° C | 84% | 1009.5 hPa | 0 mm | 0.45 m/s, 251° | 0 W/m² | - |
| 1787925877 | 28.33° C | 84% | 1009.2 hPa | 0 mm | 0.89 m/s, 128° | 0 W/m² | - |
| 1787925816 | 28.33° C | 84% | 1009.6 hPa | 0 mm | 0.89 m/s, 219° | 0 W/m² | - |
| 1787925756 | 28.33° C | 84% | 1009.3 hPa | 0 mm | 0.89 m/s, 212° | 0 W/m² | - |
| 1787925694 | 28.33° C | 84% | 1009.4 hPa | 0 mm | 0.89 m/s, 222° | 0 W/m² | - |
| 1787925633 | 28.33° C | 84% | 1009.4 hPa | 0 mm | 0.45 m/s, 240° | 0 W/m² | - |
| 1787925572 | 28.33° C | 84% | 1009.3 hPa | 0 mm | 0.89 m/s, 198° | 0 W/m² | - |
| 1787925511 | 28.33° C | 84% | 1009.3 hPa | 0 mm | 1.34 m/s, 201° | 0 W/m² | - |
| 1787925450 | 28.33° C | 84% | 1009.3 hPa | 0 mm | 0.45 m/s, 218° | 0 W/m² | - |
| 1787925389 | 28.33° C | 84% | 1009.5 hPa | 0 mm | 0.89 m/s, 187° | 0 W/m² | - |
| 1787925328 | 28.33° C | 84% | 1009.4 hPa | 0 mm | 2.68 m/s, 225° | 0 W/m² | - |
| 1787925267 | 28.33° C | 84% | 1009.3 hPa | 0 mm | 2.24 m/s, 212° | 0 W/m² | - |
| 1787925206 | 28.33° C | 84% | 1009 hPa | 0 mm | 0.89 m/s, 194° | 0 W/m² | - |
| 1787925145 | 28.33° C | 84% | 1009.3 hPa | 0 mm | 0.45 m/s, 238° | 0 W/m² | - |
| 1787925084 | 28.33° C | 84% | 1009.3 hPa | 0 mm | 2.24 m/s, 220° | 0 W/m² | - |
| 1787925023 | 28.33° C | 84% | 1009.2 hPa | 0 mm | 0.45 m/s, 216° | 0 W/m² | - |
| 1787924962 | 28.33° C | 84% | 1009.1 hPa | 0 mm | 0.89 m/s, 287° | 0 W/m² | - |
| 1787924901 | 28.33° C | 84% | 1009.3 hPa | 0 mm | 0.45 m/s, 233° | 0 W/m² | - |
| 1787924840 | 28.33° C | 84% | 1008.9 hPa | 0 mm | 0 m/s | 0 W/m² | - |
* Rain latest hour (hover to see other rain measurements)
** Current wind speed in m/s (hover to see current wind gust speed)